Wind_Speed
8 7 6 6 6 8 8 8 8 7 8 8 7 7 7 6 6 5 5 6 6 7 7 6 5 3 3 3 0 5 9 10 10 12 13 12 9 8 7 10 12 15 16 17 17 16 16 15 14
6 5 4 3 4 6 7 9 10 9 7 6 6 6 6 6 6 6 6 5 5 5 5 5 5 4 3 3 3 2 5 9 10 11 12 14 13 12 10 8 8 10 12 13 14 16 17 18 18
5 4 2 1 3 4 5 7 10 11 8 6 5 4 5 6 6 6 6 6 5 5 5 5 4 4 4 4 5 5 6 5 7 9 11 12 13 15 14 14 11 10 10 10 10 10 10 12 12
7 5 3 2 1 2 4 6 9 10 10 8 7 6 5 5 5 6 6 6 5 5 5 5 5 5 4 4 5 8 8 8 8 8 8 9 11 12 14 16 15 14 13 11 10 10 10 10 11
8 7 6 5 4 3 3 6 8 10 11 10 9 9 8 7 7 7 6 5 4 4 5 6 6 6 6 6 6 6 8 10 11 11 10 10 10 10 12 14 16 16 15 15 14 14 15 15 15
9 8 7 7 7 6 6 7 9 11 12 13 11 10 10 10 9 8 7 6 6 6 6 6 7 8 9 8 8 8 8 9 11 12 13 14 12 11 13 13 15 15 16 17 17 16 17 18 18
10 9 9 9 10 9 9 11 13 15 15 14 13 12 12 12 11 11 10 10 9 9 9 8 8 10 11 12 12 11 11 11 12 12 13 14 15 15 15 16 16 16 16 17 18 19 19 19 20
11 12 12 12 12 13 13 14 17 19 19 17 17 14 15 14 13 12 12 13 13 13 12 11 11 10 12 13 14 15 15 15 15 15 15 15 15 15 16 19 18 18 18 19 20 21 21 21 22
14 14 15 15 16 17 18 19 21 22 22 18 20 19 18 16 15 14 13 13 14 16 16 15 15 14 14 15 16 17 18 18 19 19 18 19 18 17 17 16 19 20 21 21 22 23 23 23 24
18 19 19 20 21 22 22 23 23 25 24 21 21 22 22 17 15 16 16 15 15 17 18 18 18 18 18 17 18 19 20 21 22 22 21 21 22 22 21 19 19 20 21 21 22 23 25 26 26
21 22 23 23 24 25 25 25 26 26 27 25 21 20 20 20 18 17 17 17 17 19 20 20 21 21 22 21 21 21 21 23 24 24 23 22 22 25 25 25 23 22 23 24 24 24 25 25 26
23 25 26 26 26 27 27 29 29 28 26 23 20 20 20 20 21 21 20 20 20 21 22 23 24 24 23 24 23 23 22 24 25 26 27 27 25 27 29 29 28 27 26 27 27 28 29 27 27
27 27 29 30 31 31 31 32 31 28 26 24 25 25 25 23 23 23 22 23 23 23 24 25 24 24 23 21 22 24 24 25 26 27 28 28 28 28 30 32 32 31 31 32 30 31 34 33 33
28 30 31 33 34 33 34 35 32 28 29 29 29 28 26 24 23 24 24 24 24 22 22 23 23 23 22 22 23 24 25 26 26 27 30 31 31 32 31 31 33 34 34 35 35 36 38 38 37
32 33 34 36 36 36 37 34 33 33 34 32 31 28 27 26 27 27 25 24 25 26 26 25 26 26 26 24 25 26 28 28 28 29 29 31 32 34 34 35 35 35 36 36 38 38 40 40 39
36 37 37 35 36 35 36 36 35 37 34 32 30 28 28 29 29 29 28 28 29 29 30 30 30 30 31 31 29 29 31 31 31 32 32 32 33 35 37 37 37 39 39 40 39 40 41 42 43
34 37 38 39 35 38 40 39 35 35 33 30 29 29 31 32 31 30 30 30 32 32 32 33 33 32 32 31 32 32 32 33 34 34 34 34 34 36 37 39 39 41 41 41 43 44 44 44 45
39 36 36 35 36 38 40 36 37 36 36 35 34 34 34 34 33 33 32 33 33 33 33 34 34 33 31 31 31 32 32 33 35 34 33 34 35 36 37 38 38 39 41 42 43 45 46 47 48
41 40 38 34 37 38 39 40 41 39 37 35 35 35 35 34 35 35 35 34 32 31 30 29 29 29 30 32 32 32 32 33 33 34 34 35 35 35 37 38 40 41 43 44 45 46 46 47 48
40 41 42 39 41 43 44 45 42 47 37 38 38 39 38 37 38 38 37 34 32 31 31 31 31 30 30 30 30 30 32 33 34 35 36 38 39 40 41 43 43 45 46 48 49 51 52 52 52
45 45 42 46 47 45 47 49 47 47 39 36 38 37 38 37 35 33 33 32 32 32 32 32 32 31 31 32 33 33 34 35 36 37 39 40 41 42 43 43 44 45 47 49 51 53 55 57 59
50 48 50 48 49 48 49 45 44 44 37 36 39 39 36 35 34 34 33 33 33 33 32 31 32 33 35 37 38 38 39 40 40 39 39 40 41 42 45 46 48 50 52 54 55 57 60 62 64
52 53 52 49 51 52 50 50 43 41 38 34 38 38 34 33 33 33 34 35 34 33 32 33 35 37 38 40 40 41 41 42 42 42 42 44 47 48 50 52 54 57 59 61 63 64 64 65 68
50 50 51 51 50 53 52 50 45 44 37 35 35 34 34 37 37 36 36 35 34 34 34 35 36 38 40 41 42 43 43 44 45 46 49 51 54 56 58 59 60 61 64 67 69 71 71 70 71
49 49 48 51 55 52 50 49 41 42 35 33 31 33 34 35 35 35 35 34 34 35 35 36 38 40 41 43 44 46 48 49 51 53 54 55 57 59 62 65 66 67 68 68 71 73 75 74 74
47 46 48 50 52 50 46 46 44 38 36 35 33 32 31 32 33 34 34 34 35 36 37 38 40 42 44 46 48 50 53 55 56 58 60 62 62 63 65 68 71 75 73 73 71 74 77 76 78
45 46 36 41 42 45 46 42 40 38 35 33 33 32 31 32 33 33 35 38 38 40 41 43 45 47 48 49 51 53 55 57 60 62 62 64 67 68 67 69 74 75 80 75 74 76 82 80 82
43 39 41 43 44 43 43 43 40 38 39 38 36 35 34 34 35 38 40 41 43 45 46 46 46 48 49 50 52 55 57 60 63 64 66 65 66 70 71 71 75 81 83 79 80 83 86 87 89
41 41 41 43 44 45 45 42 40 41 42 41 40 40 39 39 39 41 44 45 47 47 48 49 50 51 52 54 56 58 61 63 64 65 66 67 68 72 76 76 78 84 86 83 85 88 91 94 95
48 48 51 51 49 47 47 45 46 47 46 45 44 42 41 42 44 44 47 46 46 48 49 50 51 52 55 57 58 61 62 63 65 68 70 72 73 76 81 81 82 86 88 88 90 93 95 99 101
Wind_Direction
145 134 113 92 73 65 50 37 31 32 34 31 28 24 25 30 32 31 35 40 41 49 54 41 29 8 358 11 355 247 248 244 243 239 244 250 252 255 254 247 243 241 239 243 251 255 260 264 270
170 154 136 110 78 61 37 25 19 22 24 26 24 20 14 13 17 17 11 12 18 31 36 37 29 12 335 318 324 291 243 245 253 253 254 250 254 252 252 252 254 250 247 242 244 251 256 261 264
206 196 197 150 67 54 33 22 18 12 7 7 7 359 355 1 3 5 11 7 4 4 7 10 8 5 349 306 289 289 287 274 259 256 257 259 259 252 254 256 257 262 264 260 261 263 261 261 264
232 227 244 252 306 0 7 9 1 5 1 354 345 328 325 338 349 352 0 7 2 348 343 339 335 331 326 321 300 283 280 281 280 278 269 268 260 257 252 253 259 256 263 263 266 269 271 275 277
244 245 251 272 286 301 329 343 345 344 346 347 336 324 313 312 326 338 349 349 345 323 310 308 308 305 301 303 300 297 291 284 280 278 276 273 271 269 265 260 259 258 256 260 261 264 270 272 272
245 251 256 264 276 285 305 319 323 326 331 333 328 317 304 296 298 309 319 319 311 305 299 290 287 287 287 286 285 285 286 287 287 281 276 277 278 273 267 265 265 264 264 265 264 267 268 269 269
260 260 259 260 268 277 288 302 310 315 320 321 317 310 296 291 288 293 298 297 296 296 296 293 287 283 278 278 277 274 273 278 278 281 282 283 280 273 272 273 270 269 267 266 267 267 268 267 268
267 266 263 264 267 274 286 294 301 307 311 314 309 304 295 285 283 283 285 288 287 287 290 292 289 283 279 278 277 276 273 272 273 274 275 280 280 279 274 273 273 272 272 272 272 271 270 269 270
268 269 269 271 274 278 284 290 295 298 302 306 303 299 289 282 276 274 274 275 278 281 282 283 284 282 280 280 277 277 277 276 273 272 273 274 275 277 279 277 276 276 273 271 271 272 271 271 270
269 271 271 273 276 280 283 286 290 294 297 299 296 294 292 283 271 271 271 271 274 275 277 280 280 281 281 280 280 277 277 278 276 274 272 269 274 277 275 274 276 278 278 277 275 273 272 271 270
270 271 273 274 276 280 284 287 289 292 294 295 293 288 287 286 279 271 270 268 268 270 273 274 276 278 280 282 281 281 278 277 277 279 278 275 272 273 274 275 273 271 275 276 276 275 275 276 276
272 272 273 275 278 279 282 285 288 290 288 286 285 283 279 278 277 276 276 273 271 270 271 273 275 275 278 281 283 282 281 277 275 276 277 276 274 272 272 271 270 270 268 270 273 275 274 273 275
273 273 275 277 278 281 285 286 287 285 280 280 283 285 279 271 268 271 274 273 272 269 269 271 273 276 278 281 281 279 276 274 274 270 270 272 273 272 272 273 274 272 270 269 267 269 271 270 270
275 274 274 277 278 281 284 284 285 281 277 280 282 283 279 274 272 271 271 272 270 269 271 275 278 278 276 276 275 274 274 275 275 275 275 275 274 272 272 272 272 273 272 272 271 269 270 270 269
276 277 278 278 281 281 281 281 281 280 279 279 279 276 271 273 276 276 271 269 267 264 270 274 274 274 273 272 270 270 272 274 272 272 274 274 275 275 274 273 274 274 272 271 270 271 271 273 273
276 276 276 277 279 280 279 280 279 280 280 279 276 273 271 274 274 273 274 274 271 269 268 271 274 277 277 275 270 265 263 268 271 271 271 271 273 274 275 276 274 273 273 273 273 272 270 270 271
276 273 271 274 277 277 275 275 277 276 277 277 276 275 275 276 272 270 272 276 275 273 272 272 272 274 276 275 273 270 267 267 269 269 270 272 273 273 274 275 276 275 274 273 273 274 273 272 271
271 274 274 275 272 273 272 271 271 272 274 276 277 276 275 273 271 272 275 278 275 274 272 270 271 273 274 273 271 270 269 269 270 272 272 272 273 275 277 278 279 277 277 276 275 273 273 272 272
273 275 273 274 271 270 270 269 273 269 275 277 276 276 274 272 271 273 275 278 276 275 274 274 272 271 272 272 272 271 271 269 270 271 273 276 276 276 276 278 279 281 282 281 280 278 276 276 276
276 276 270 271 271 265 266 268 268 273 271 276 277 274 271 271 274 271 272 270 270 271 271 272 273 274 275 275 275 273 271 271 272 273 273 274 275 276 277 278 278 279 279 280 281 281 281 280 278
275 278 276 267 267 266 269 270 267 267 269 274 275 275 271 270 274 269 266 265 266 268 270 271 272 274 275 276 275 273 272 272 273 273 273 274 274 275 275 276 276 276 277 278 279 278 277 277 277
271 272 271 267 264 269 271 272 270 268 267 271 270 272 273 267 269 268 267 267 269 270 271 272 274 275 276 276 276 277 276 276 275 273 273 274 275 278 279 279 278 277 277 277 277 278 279 280 280
270 268 270 266 263 267 269 273 274 271 270 270 271 272 267 265 267 267 269 270 272 273 273 274 274 273 273 272 272 272 273 274 275 276 276 278 279 279 278 279 280 281 280 280 281 280 279 279 279
267 265 265 264 263 265 269 273 272 273 275 271 270 267 267 268 270 269 269 268 271 273 274 273 272 270 270 270 271 270 270 271 273 275 276 278 278 279 281 280 280 280 282 283 283 282 282 281 281
265 267 267 263 263 266 273 272 271 273 275 271 270 270 270 269 268 266 267 271 272 271 270 269 269 268 268 269 270 271 272 273 274 275 275 276 278 279 281 282 283 282 281 279 279 280 279 281 282
259 258 258 259 264 269 269 268 271 271 274 277 275 273 272 270 269 268 270 271 270 269 268 268 268 267 267 269 271 273 274 276 278 280 281 281 280 281 283 283 283 284 284 284 282 281 279 279 279
260 261 264 262 263 266 266 269 269 272 275 274 273 275 273 273 271 270 270 270 270 268 268 268 269 270 272 274 275 277 279 281 281 280 280 280 283 285 287 287 286 284 282 281 280 281 281 283 282
259 258 259 260 263 268 271 272 276 278 276 277 276 276 275 276 278 274 274 276 273 271 270 271 271 273 276 278 279 279 279 280 279 279 283 286 287 287 287 287 287 284 282 285 287 286 287 287 287
257 258 261 263 262 265 269 277 279 276 276 277 278 279 279 279 276 274 274 274 273 272 272 274 276 280 283 283 284 282 282 283 284 286 287 288 288 287 286 286 285 285 285 288 288 288 288 288 288
254 255 256 257 261 263 268 268 274 277 275 275 276 280 279 278 278 276 273 272 275 275 278 280 282 284 284 285 286 286 286 285 285 286 286 286 286 286 286 287 287 287 288 288 289 289 290 290 291
Height
5867 5867 5867 5867 5869 5866 5866 5867 5865 5865 5864 5862 5861 5860 5860 5858 5858 5860 5857 5856 5855 5854 5853 5853 5852 5851 5850 5849 5849 5849 5849 5850 5850 5851 5852 5852 5853 5854 5855 5856 5857 5858 5859 5860 5861 5862 5863 5863 5863
5867 5867 5867 5867 5868 5866 5867 5866 5866 5865 5864 5862 5861 5860 5859 5859 5858 5858 5857 5856 5856 5855 5854 5854 5853 5852 5852 5851 5850 5850 5850 5850 5850 5850 5851 5852 5853 5854 5855 5856 5857 5857 5857 5858 5859 5859 5861 5862 5863
5867 5867 5868 5867 5866 5867 5867 5866 5865 5865 5864 5863 5861 5860 5859 5859 5858 5858 5857 5857 5856 5855 5855 5854 5854 5853 5853 5852 5851 5850 5850 5850 5850 5850 5851 5851 5852 5854 5854 5855 5856 5857 5857 5858 5858 5858 5859 5859 5860
5867 5867 5867 5866 5866 5867 5867 5866 5865 5864 5863 5862 5862 5860 5860 5858 5858 5858 5857 5857 5856 5856 5855 5855 5854 5854 5853 5853 5852 5851 5850 5850 5850 5849 5850 5850 5851 5852 5853 5853 5854 5855 5856 5856 5856 5857 5858 5858 5859
5865 5866 5866 5865 5865 5866 5866 5866 5864 5864 5863 5862 5861 5860 5859 5858 5857 5857 5856 5856 5855 5855 5854 5854 5853 5853 5852 5852 5851 5851 5850 5851 5850 5850 5850 5849 5850 5850 5851 5852 5852 5854 5854 5854 5855 5855 5856 5857 5857
5864 5864 5864 5864 5864 5864 5864 5864 5863 5862 5862 5861 5860 5858 5857 5856 5856 5855 5855 5854 5854 5853 5852 5852 5851 5851 5850 5850 5850 5850 5850 5849 5849 5849 5849 5849 5849 5850 5850 5850 5850 5851 5852 5852 5853 5853 5853 5854 5854
5862 5862 5862 5863 5862 5862 5863 5862 5861 5860 5860 5859 5858 5856 5856 5855 5854 5853 5853 5852 5852 5851 5850 5850 5849 5849 5848 5848 5848 5848 5848 5848 5847 5848 5847 5847 5848 5848 5849 5849 5849 5849 5849 5850 5850 5850 5851 5851 5851
5860 5860 5861 5861 5861 5861 5861 5860 5859 5858 5857 5857 5855 5855 5853 5853 5852 5851 5850 5850 5849 5849 5848 5848 5847 5847 5846 5846 5846 5846 5845 5845 5846 5845 5845 5845 5845 5845 5846 5846 5847 5847 5848 5848 5848 5848 5848 5847 5847
5858 5858 5858 5858 5858 5858 5858 5857 5856 5855 5854 5854 5852 5851 5850 5849 5849 5848 5848 5847 5847 5846 5845 5845 5845 5844 5844 5843 5843 5842 5843 5843 5842 5842 5842 5842 5842 5843 5844 5845 5844 5844 5845 5845 5845 5845 5844 5844 5844
5855 5855 5854 5855 5854 5854 5854 5854 5853 5851 5850 5850 5849 5847 5846 5846 5846 5845 5845 5844 5844 5843 5842 5841 5841 5841 5840 5840 5840 5840 5840 5839 5839 5838 5839 5839 5839 5839 5840 5841 5842 5842 5841 5841 5841 5841 5840 5840 5840
5851 5851 5850 5850 5850 5849 5849 5849 5848 5847 5847 5846 5846 5844 5843 5841 5841 5841 5841 5841 5840 5839 5839 5838 5838 5837 5837 5837 5836 5836 5837 5836 5835 5835 5835 5835 5836 5835 5835 5837 5838 5839 5839 5838 5838 5837 5836 5836 5836
5847 5846 5845 5845 5845 5845 5844 5843 5843 5843 5842 5841 5841 5841 5840 5838 5837 5836 5836 5837 5836 5836 5835 5834 5834 5833 5833 5832 5832 5832 5833 5832 5831 5831 5830 5830 5830 5831 5830 5831 5832 5832 5833 5833 5833 5832 5832 5832 5831
5841 5841 5840 5840 5839 5839 5838 5837 5837 5838 5836 5836 5835 5835 5834 5834 5833 5833 5832 5831 5831 5830 5830 5829 5829 5829 5829 5829 5829 5828 5827 5826 5826 5826 5826 5826 5826 5826 5826 5826 5826 5827 5826 5826 5826 5825 5824 5825 5825
5836 5835 5834 5833 5833 5833 5832 5830 5830 5832 5831 5830 5830 5829 5828 5827 5827 5827 5827 5826 5826 5825 5825 5824 5824 5824 5824 5824 5824 5823 5823 5822 5821 5821 5820 5820 5820 5820 5820 5820 5820 5820 5820 5820 5820 5819 5817 5817 5818
5828 5828 5827 5825 5825 5826 5824 5824 5824 5824 5824 5824 5823 5823 5822 5822 5821 5821 5821 5821 5821 5820 5820 5819 5819 5819 5819 5819 5818 5818 5817 5816 5815 5815 5815 5814 5814 5813 5813 5813 5813 5813 5813 5813 5812 5812 5811 5811 5811
5821 5821 5819 5819 5818 5818 5817 5817 5817 5816 5816 5816 5816 5816 5816 5816 5815 5814 5814 5815 5815 5815 5814 5814 5813 5813 5812 5812 5812 5811 5810 5810 5809 5808 5808 5808 5807 5806 5805 5805 5806 5805 5805 5805 5805 5804 5804 5803 5802
5814 5811 5811 5810 5812 5811 5809 5809 5810 5808 5808 5809 5809 5810 5809 5809 5809 5808 5808 5808 5807 5807 5807 5807 5807 5807 5806 5805 5805 5805 5803 5803 5802 5802 5801 5801 5800 5799 5799 5798 5798 5797 5798 5797 5796 5795 5795 5794 5793
5801 5804 5804 5805 5803 5802 5800 5802 5801 5801 5801 5802 5802 5802 5802 5802 5801 5801 5801 5801 5800 5800 5799 5798 5798 5798 5798 5798 5798 5798 5797 5796 5795 5794 5795 5794 5794 5793 5792 5791 5790 5790 5789 5788 5787 5786 5785 5784 5783
5795 5795 5796 5798 5795 5793 5792 5792 5792 5793 5794 5795 5794 5794 5794 5794 5793 5793 5792 5792 5792 5792 5791 5791 5791 5791 5791 5791 5790 5790 5790 5790 5789 5788 5787 5786 5785 5784 5784 5783 5783 5782 5780 5780 5779 5778 5777 5775 5774
5787 5788 5788 5788 5786 5784 5784 5783 5785 5779 5787 5787 5786 5785 5785 5785 5785 5784 5784 5784 5784 5784 5784 5783 5783 5783 5782 5782 5782 5782 5782 5782 5782 5782 5781 5779 5777 5776 5775 5773 5772 5772 5771 5770 5769 5768 5767 5765 5764
5779 5778 5779 5777 5773 5775 5774 5772 5776 5774 5778 5779 5778 5776 5776 5777 5776 5776 5776 5775 5775 5775 5775 5775 5775 5774 5773 5773 5773 5772 5772 5772 5772 5772 5772 5771 5769 5768 5766 5765 5763 5761 5759 5758 5757 5756 5754 5753 5751
5769 5769 5767 5767 5764 5764 5763 5758 5764 5765 5771 5771 5769 5767 5767 5768 5768 5768 5768 5768 5768 5768 5767 5767 5767 5767 5766 5765 5765 5765 5764 5763 5762 5761 5761 5760 5759 5758 5757 5755 5753 5751 5749 5746 5743 5742 5741 5740 5739
5759 5757 5756 5756 5755 5753 5754 5751 5754 5758 5760 5761 5760 5760 5759 5759 5760 5760 5760 5760 5760 5760 5759 5759 5759 5759 5758 5758 5757 5756 5756 5755 5755 5754 5752 5750 5748 5746 5743 5741 5740 5739 5737 5734 5732 5729 5724 5723 5721
5745 5745 5744 5745 5745 5741 5743 5745 5746 5746 5751 5751 5751 5751 5751 5751 5751 5751 5751 5752 5752 5751 5751 5751 5751 5750 5750 5749 5748 5746 5745 5744 5743 5742 5741 5739 5737 5736 5734 5731 5727 5723 5722 5720 5716 5713 5710 5705 5703
5736 5736 5734 5733 5730 5732 5733 5733 5740 5736 5739 5741 5742 5743 5743 5743 5743 5742 5742 5742 5742 5742 5741 5741 5740 5740 5740 5739 5738 5737 5736 5734 5732 5730 5728 5725 5724 5722 5719 5717 5713 5709 5705 5701 5699 5697 5693 5689 5685
5722 5722 5722 5720 5720 5723 5724 5724 5727 5729 5730 5730 5732 5733 5733 5733 5733 5733 5734 5734 5734 5733 5732 5732 5731 5730 5729 5728 5728 5727 5725 5722 5720 5719 5716 5713 5708 5706 5703 5700 5697 5695 5689 5686 5681 5680 5678 5673 5669
5713 5711 5717 5712 5713 5712 5712 5716 5719 5720 5722 5722 5723 5723 5723 5724 5724 5724 5724 5723 5723 5723 5722 5721 5720 5720 5719 5718 5716 5715 5713 5710 5707 5703 5699 5696 5695 5692 5686 5684 5682 5679 5678 5669 5665 5662 5660 5652 5648
5702 5707 5705 5704 5704 5704 5705 5706 5709 5712 5711 5712 5713 5713 5714 5715 5716 5715 5714 5714 5713 5712 5711 5710 5709 5707 5706 5705 5703 5701 5698 5695 5692 5688 5686 5683 5680 5677 5674 5668 5665 5664 5659 5651 5645 5641 5636 5631 5625
5695 5695 5695 5695 5695 5693 5695 5700 5701 5700 5701 5702 5703 5704 5704 5705 5705 5705 5705 5703 5702 5700 5699 5698 5697 5696 5694 5692 5690 5687 5684 5681 5678 5675 5672 5669 5665 5662 5658 5652 5647 5643 5637 5629 5623 5617 5612 5607 5601
5682 5684 5682 5681 5684 5686 5686 5691 5689 5689 5690 5692 5692 5693 5694 5694 5693 5693 5692 5690 5690 5688 5687 5685 5684 5682 5680 5678 5674 5671 5668 5665 5663 5660 5658 5654 5649 5644 5640 5633 5627 5622 5615 5607 5600 5595 5588 5581 5575